Weather in Malinovka

Russia / Kaliningrad Oblast     54°41′55″N   20°54′03″E
temp.,
°C
wind,
m/s
gust,
m/s
humid.,
%
clouds,
%
prec.,
mm/h
press.,
hPa
HPBL,
m
4 march, thu
thu423:00+1wsw33890 0.0 101664
02:00+1wsw38910 0.0 1013159
05:00+1w49960 0.0 1011233
08:00+1wnw379718 0.0 1011206
11:00+3nw468898 0.0 1012417
14:00+3n6965100 0.0 1012805
17:00+1nnw6868100 0.0 1012883
20:000n4107899 0.0 1013362
5 march, fri
fri523:00−1n410792 0.0 1015383
02:00−2nnw23811 0.0 101688
05:00−2nw228326 0.0 101668
08:00−1nw237940 0.1 1017107
11:00+1n464581 0.1 10191227
14:00+2nnw464241 0.1 10201546
17:00+1nw575642 0.1 10211261
20:00−1nw387471 0.1 1023259
6 march, sat
sat623:00−2nw397133 0.0 1025273
02:00−3n258028 0.0 1026168
05:00−3wsw127161 0.0 102728
08:00−2w256666 0.0 1027202
11:00+3w574946 0.0 10271542
14:00+3wsw795063 0.0 10261385
17:00+3wsw7125113 0.0 10221272
20:00+1wsw7146128 0.0 1020948
7 march, sun
sun723:00+2w91684100 0.4 10171269
02:00+2w91781100 0.4 10151243
05:00+2w91693100 0.3 1013950
08:00+1nw5996100 1.1 1012551
11:000n3498100 3.0 1012292
14:00+1nw4697100 4.6 1012445
17:00+1nw61075100 1.0 10121265
20:00−2nnw4127986 1.0 1013771
8 march, mon
mon823:00−3nnw38771 0.0 1015242
02:00−3nw497846 0.0 1016348
05:00−3nnw5109397 0.1 1016657
08:00−3nnw498691 0.4 1018797
11:00−1nnw6970100 0.1 10201279
14:000nnw6964100 0.2 10211363
17:00−1nnw686430 0.0 10221201
20:00−3nnw497515 0.0 1024357